Weather History for Kingston, Jamaica

Change the Weather History Date:

Sunday, September 4, 2011

  Actual Average Record
Temperature  
Mean Temperature 84 °F -  
Max Temperature 90 °F 87 °F 93 °F (2006)
Min Temperature 78 °F 78 °F 75 °F (1998)
Cooling Degree Days 19    
Growing Degree Days 34 (Base 50)    
Moisture  
Dew Point 69 °F    
Average Humidity 62    
Maximum Humidity 70    
Minimum Humidity 52    
Precipitation  
Precipitation 0.00 in - - ()
Sea Level Pressure  
Sea Level Pressure 29.91 in    
Wind  
Wind Speed 6 mph ()    
Max Wind Speed 18 mph    
Max Gust Speed -    
Visibility 5.7 miles    
Events Thunderstorm    
Averages and records for this station are not official NWS values.
T = Trace of Precipitation, MM = Missing Value Source: Averaged Metar Reports

Daily Weather History Graph

Daily Weather History Graph

Search for Another Location

Airport:

Trip Planner

Search our weather history database for the weather conditions in past years. The results will help you decide how hot, cold, wet, or windy it might be!

Date:

Astronomy

Sep. 04, 2011 Rise Set
Actual Time 5:53 AM EST 6:18 PM EST
Civil Twilight 5:31 AM EST 6:40 PM EST
Nautical Twilight 5:05 AM EST 7:06 PM EST
Astronomical Twilight 4:39 AM EST 7:32 PM EST
Moon 12:25 PM EST (9/4) 11:47 PM EST (9/4)
Length of Visible Light 13h 09m
Length of Day
12h 25m
Waxing Crescent, 50% of the Moon is Illuminated
Sep 4
Waxing Crescent
Sep 4
First Quarter
Sep 12
Full
Sep 20
Last Quarter
Sep 27
New

Hourly Weather History & Observations

Time (EST) Temp. Heat Index Dew Point Humidity Pressure Visibility Wind Dir Wind Speed Gust Speed Precip Events Conditions
12:00 AM 80.6 °F 83.9 °F 69.8 °F 70% 29.92 in 6.2 mi East 5.8 mph - N/A Thunderstorm Partly Cloudy
1:00 AM 81 °F - 67 °F 55% 29.92 in 3 mi North 2.3 mph - -   Scattered Clouds
1:00 AM 80.6 °F 83.2 °F 68.0 °F 65% 29.92 in 6.2 mi North 2.3 mph - N/A Thunderstorm Partly Cloudy
2:00 AM 80.6 °F 83.2 °F 68.0 °F 65% 29.89 in 6.2 mi Calm Calm - N/A   Partly Cloudy
3:00 AM 78.8 °F - 68.0 °F 69% 29.89 in 6.2 mi West 3.5 mph - N/A   Partly Cloudy
4:00 AM 79 °F - 68 °F 61% 29.90 in 4 mi SSW 2.3 mph - -   Scattered Clouds
4:00 AM 78.8 °F - 68.0 °F 69% 29.89 in 6.2 mi SSW 2.3 mph - N/A   Partly Cloudy
5:00 AM 80.6 °F 83.2 °F 68.0 °F 65% 29.89 in 6.2 mi East 5.8 mph - N/A   Partly Cloudy
6:00 AM 78.8 °F - 68.0 °F 69% 29.89 in 6.2 mi East 2.3 mph - N/A   Partly Cloudy
7:00 AM 81 °F - 69 °F 58% 29.94 in 4 mi WNW 3.5 mph - -   Haze
7:00 AM 80.6 °F 83.2 °F 68.0 °F 65% 29.92 in 6.2 mi WNW 3.5 mph - N/A   Partly Cloudy
8:00 AM 82.4 °F 85.4 °F 68.0 °F 62% 29.95 in 6.2 mi North 2.3 mph - N/A   Partly Cloudy
9:00 AM 84.2 °F 88.4 °F 69.8 °F 62% 29.95 in 6.2 mi SE 10.4 mph - N/A   Partly Cloudy
10:00 AM 85 °F - 71 °F 54% 29.96 in 4 mi SE 13.8 mph - -   Haze
10:00 AM 84.2 °F 89.6 °F 71.6 °F 66% 29.95 in 6.2 mi SE 13.8 mph - N/A   Partly Cloudy
11:00 AM 84.2 °F 89.6 °F 71.6 °F 66% 29.95 in 6.2 mi SE 16.1 mph - N/A   Partly Cloudy
12:00 PM 86.0 °F 91.8 °F 71.6 °F 62% 29.92 in 6.2 mi SE 16.1 mph - N/A   Partly Cloudy
1:00 PM - - - %  in - Calm Calm - -  
1:00 PM 86.0 °F 91.8 °F 71.6 °F 62% 29.89 in 6.2 mi SE 18.4 mph - N/A   Partly Cloudy
2:00 PM 86.0 °F 90.4 °F 69.8 °F 58% 29.89 in 6.2 mi SE 17.3 mph - N/A   Partly Cloudy
3:00 PM 86.0 °F 90.4 °F 69.8 °F 58% 29.86 in 6.2 mi SE 15.0 mph - N/A   Partly Cloudy
4:00 PM 85 °F - 70 °F 52% 29.87 in 4 mi SE 12.7 mph - -   Haze
4:00 PM 86.0 °F 90.4 °F 69.8 °F 58% 29.86 in 6.2 mi SE 12.7 mph - N/A   Partly Cloudy
5:00 PM 84.2 °F 89.6 °F 71.6 °F 66% 29.86 in 6.2 mi SE 12.7 mph - N/A   Partly Cloudy
6:00 PM 82.4 °F 86.3 °F 69.8 °F 66% 29.89 in 6.2 mi ESE 8.1 mph - N/A   Partly Cloudy
7:00 PM 82 °F - 69 °F 56% 29.90 in 4 mi ESE 6.9 mph - -   Haze
7:00 PM 82.4 °F 86.3 °F 69.8 °F 66% 29.89 in 6.2 mi ESE 6.9 mph - N/A   Partly Cloudy
8:00 PM 78.8 °F - 64.4 °F 61% 29.89 in 6.2 mi ESE 11.5 mph - N/A   Scattered Clouds
9:00 PM 80.6 °F 83.2 °F 68.0 °F 65% 29.92 in 6.2 mi East 5.8 mph - N/A   Partly Cloudy
10:00 PM 80 °F - 66 °F 54% 29.93 in 4 mi ESE 4.6 mph - -   Haze
10:00 PM 80.6 °F 82.7 °F 66.2 °F 61% 29.92 in 6.2 mi ESE 4.6 mph - N/A   Partly Cloudy
11:00 PM 80.6 °F 83.2 °F 68.0 °F 65% 29.92 in 6.2 mi ESE 3.5 mph - N/A   Partly Cloudy